Location: De Har
(53.3413°N, 6.6858°E)
Time: 08:59:40
(UTC+00:00)

Cosmos 1842 - Pass Details

Date: 22 April 2026
Orbit: 397 x 403 km, 82.5° (Epoch: 15 May)

Event Time Altitude Azimuth Distance (km) Brightness Sun altitude
Exits shadow 01:06:57 27° 99° (E) 817 4.3 -21.4°
Maximum altitude 01:07:08 27° 92° (E) 813 4.4 -21.4°
Drops below altitude 10° 01:09:54 10° 32° (NNE) 1,472 6.7 -21.2°
Sets 01:12:06 0° 20° (NNE) 2,336 8.1 -21.1°
